Regional Weather Roundup
Issued by NWS

Home | Current Version | Previous Version | Text Only | Print | Product List | Glossary Off
Versions: 1 2 3 4 5 6 7 8 9 10 11 12 13 14 15 16 17 18 19 20 21 22 23 24 25 26 27 28 29 30 31 32 33 34 35 36 37 38 39 40 41 42 43 44 45 46 47 48 49 50

000
ASUS43 KLOT 252103
RWRIL

ILLINOIS REGIONAL WEATHER ROUNDUP
NATIONAL WEATHER SERVICE CHICAGO/ROMEOVILLE IL
400 PM CDT MON JUL 25 2016

NOTE: "FAIR" INDICATES FEW OR NO CLOUDS BELOW 12,000 FEET WITH NO
SIGNIFICANT WEATHER AND/OR OBSTRUCTIONS TO VISIBILITY.

* THESE STATIONS ARE NOT UNDER NWS QUALITY CONTROL. THEY ALSO MAY NOT
  REPORT WEATHER SUCH AS PRECIPITATION OR FOG.

ILZ001-002-007-009-015-016-024-252200-
NORTHWEST ILLINOIS

CITY           SKY/WX    TMP DP  RH WIND       PRES   REMARKS
MOLINE         MOSUNNY   86  66  51 N7        30.00F HX  88
STERLING*      CLOUDY    85  69  58 N3        30.01F HX  89
SAVANNA*       MOSUNNY   85  65  50 NW8       30.01F HX  87
$$

ILZ003-004-008-010-011-017-018-252200-
NORTH CENTRAL ILLINOIS

CITY           SKY/WX    TMP DP  RH WIND       PRES   REMARKS
ROCKFORD       MOSUNNY   85  64  49 NW8       30.01F HX  86
FREEPORT*      PTSUNNY   83  64  52 N5        30.03F HX  84
ROCHELLE*      CLOUDY    82  67  59 N5        30.01F HX  84
DE KALB*       MOSUNNY   82  67  61 N6        30.01F HX  84
$$

ILZ005-006-012>014-019>023-252200-
NORTHEAST ILLINOIS

CITY           SKY/WX    TMP DP  RH WIND       PRES   REMARKS
CHICAGO-OHARE  MOSUNNY   88  61  40 NW7       29.97F HX  88
CHICAGO-MIDWAY PTSUNNY   85  63  47 E9        29.97F HX  86
AURORA         CLOUDY    85  67  54 N7        30.00F HX  87
LANSING*       PTSUNNY   84  64  51 E3        29.99S HX  85
WAUKEGAN       MOSUNNY   81  64  56 SE8       29.98F HX  82
DUPAGE AIRPORT MOSUNNY   85  63  47 NW8       29.99F HX  86
KANKAKEE*      CLOUDY    85  69  58 W6        30.00S HX  89
WHEELING       PTSUNNY   85  63  47 VRB5      29.99F HX  86
MORRIS*        PTSUNNY   83  68  61 CALM      29.98F HX  86
NORTHERLY ISL    N/A     77  68  73 SE3         N/A
$$

LMZ740>746-252200-
SOUTHERN LAKE MICHIGAN

STATION/POSITION SKY/WX   TEMP    WIND        PRES    VSBY  WAVE
                          AIR SEA DIR/SP/G                  HT/PER
                          (F)     (DEG/KT/KT) (MB)    (MI)  (FT/S)
SOUTHERN BUOY              75 75  140/  4/  6 1015.2          1/ 3
WILMETTE HARBOR            74 70  160/  6/  8   N/A           1
HARRISON CRIB              78     130/  7/  8   N/A
BURNHAM HARBOR             78     100/  3/  5   N/A
CALUMET HARBOR             76      60/  7/  9 1015.3F
BURNS HARBOR               78      60/  6/  7 1016.3F
MICHIGAN CITY              75      10/  4/  5   N/A
MICHIGAN CITY 6N           75 76   40/  4/  4   N/A           1/ 3
ST. JOSEPH                 74 79  310/  4/  6 1015.8F         1/ 4
$$

ILZ025>027-034>036-040-047-049-050-058-095>099-252200-
WEST-CENTRAL ILLINOIS

CITY           SKY/WX    TMP DP  RH WIND       PRES   REMARKS
QUINCY         CLOUDY    83  69  62 N8        30.01F HX  86
MACOMB*        CLOUDY    82  69  65 N7        30.03F HX  85
JACKSONVILLE*  CLOUDY    83  74  74 CALM      29.99F HX  89
PITTSFIELD*    CLOUDY    82  73  72 N8        30.02S HX  87
$$

ILZ028>032-037-038-041>044-048-051>054-059>061-252200-
CENTRAL ILLINOIS

CITY           SKY/WX    TMP DP  RH WIND       PRES   REMARKS
PONTIAC        MOSUNNY   83  73  71 NW3       30.01S HX  89
BLOOMINGTON    CLOUDY    84  71  65 N9        30.02S HX  89
DECATUR        PTSUNNY   87  69  54 W8        30.00S HX  91
PEORIA         PTSUNNY   83  69  62 N6        30.00S HX  86
LACON*         CLOUDY    83  69  61 CALM      29.99F HX  87
LINCOLN*       CLOUDY    84  76  77 N5        30.00S HX  92
SPRINGFIELD    PTSUNNY   86  74  67 CALM      30.00S HX  94
TAYLORVILLE    CLOUDY    83  74  76 MISG      30.00S HX  89
$$

ILZ033-039-045-046-055>057-062-063-252200-
EAST-CENTRAL ILLINOIS

CITY           SKY/WX    TMP DP  RH WIND       PRES   REMARKS
CHAMPAIGN      CLOUDY    83  74  74 W5        30.01S HX  89
MATTOON        PTSUNNY   83  73  72 N6        29.98F HX  89
PARIS*         MOSUNNY   85  76  73 CALM      30.00F HX  94
$$

ILZ079-100>102-252200-
SOUTHWEST ILLINOIS

CITY           SKY/WX    TMP DP  RH WIND       PRES   REMARKS
CAHOKIA*       SUNNY     88  74  63 NE6       29.96F HX  96
SPARTA*        CLOUDY    84  76  76 N7        29.98F HX  94
$$

ILZ064>066-069>071-074>076-080>082-084>086-088>090-092>094-252200-
SOUTH-CENTRAL ILLINOIS

CITY           SKY/WX    TMP DP  RH WIND       PRES   REMARKS
CARBONDALE     CLOUDY    86  74  67 NW7       29.96F HX  94
CAIRO*         CLOUDY    80  74  83 CALM      29.96F HX  84
EFFINGHAM*     CLOUDY    83  76  79 CALM      30.01S HX  92
MARION         RAIN      77  75  94 N9        29.98R
MT. VERNON     CLOUDY    79  72  78 CALM      29.98S HX  82
CENTRALIA*     CLOUDY    82  80  92 E3        29.97F HX  93
SALEM*         CLOUDY    81  77  89 E5        29.98S HX  88
METROPOLIS*    CLOUDY    85  76  74 SW5       29.98F HX  93
$$

ILZ067-068-072-073-078-083-087-091-252200-
SOUTHEAST ILLINOIS

CITY           SKY/WX    TMP DP  RH WIND       PRES   REMARKS
LAWRENCEVILLE  CLOUDY    91  75  59 N6        29.98S HX 101
FLORA*         LGT RAIN  85  78  79 NE3       29.99R HX  97
FAIRFIELD*     TSTM      74  73  96 CALM      29.99R
HARRISBURG*    CLOUDY    86  80  81 NE12      29.95F HX 101
ROBINSON*      CLOUDY    85  76  73 NE3       29.99S HX  94
CARMI*         CLOUDY    85  78  80 NW22G28   30.00R THUNDER HX  96
$$

ABBREVIATIONS USED IN REMARKS
   TC - TEMPERATURE IN CELSIUS
  WCI - WIND CHILL INDEX
   HX - HEAT INDEX
  VSB - VISIBILITY
$$




USA.gov is the U.S. government's official web portal to all federal, state and local government web resources and services.